Preview of NWS' New Version of Forecast
This preview is not operational and should not be used for support decisions.
Latest weather observations around

INDEPENDENCE (KIDP)

Using English Units (Switch to International System of Units)
Date/ Time (CDT) Wind (mph) Vis. (mi) Weather Sky Cond. Temp (°F) Rel. Humidity Wind Chill (°F) Heat Index (°F) Pressure Precip. (in)
Air Dwpt 6 hour Altimeter (inHg) Sea level (inHg) 1 hr 3 hr 6 hr
Max Min
Mar 22 19:55 E 9 10 Mostly Cloudy SCT075 SCT100 BKN120 59 36     43%     30.09        
Mar 22 19:35 E 7 10 Mostly Cloudy BKN120 61 33     34%     30.1        
Mar 22 19:15 E 6 10 Mostly Cloudy BKN120 63 31     30%     30.1        
Mar 22 18:55 E 5 10 Clear CLR 63 32     31%     30.09        
Mar 22 18:35 SE 3 10 Clear CLR 64 29     27%     30.09        
Mar 22 18:15 E 7 10 Clear CLR 65 29     26%     30.09        
Mar 22 17:55 SE 7 10 Clear CLR 65 28     25%     30.09        
Mar 22 17:35 ESE 10 10 Clear CLR 66 28     24%     30.08        
Mar 22 17:15 ESE 10 10 Clear CLR 67 29     25%     30.09        
Mar 22 16:55 SE 9 10 Clear CLR 67 29     24%     30.1        
Mar 22 16:35 SE 5 10 Clear CLR 67 29     24%     30.11        
Mar 22 16:15 SE 5 10 Clear CLR 67 27     22%     30.11        
Mar 22 15:55 ESE 6 10 Clear CLR 66 29     24%     30.13        
Mar 22 15:35 SE 6 10 Clear CLR 67 30     25%     30.14        
Mar 22 15:15 ENE 6 10 Clear CLR 67 28     23%     30.15        
Mar 22 14:55 Calm 10 Clear CLR 66 27     23%     30.16        
Mar 22 14:35 WSW 5 10 Clear CLR 66 27     22%     30.17        
Mar 22 14:15 SE 3 10 Clear CLR 65 29     26%     30.18        
Mar 22 13:55 S 7 7 Haze CLR 66 30     26%     30.19        
Mar 22 13:35 E 6 10 Clear CLR 65 31     29%     30.19        
Mar 22 13:15 ESE 7 10 Clear CLR 64 31     29%     30.2        
Mar 22 12:55 S 6 10 Clear CLR 64 31     30%     30.2        
Mar 22 12:35 E 7 10 Clear CLR 63 32     31%     30.2        
Mar 22 12:15 ENE 3 10 Clear CLR 62 32     33%     30.21        
Mar 22 11:55 E 5 10 Clear CLR 61 34     36%     30.23        
Mar 22 11:35 S 5 10 Clear CLR 60 35     39%     30.24        
Mar 22 11:15 SSW 6 10 Clear CLR 58 34     40%     30.25        
Mar 22 10:55 S 5 10 Clear CLR 57 38     49%     30.25        
Mar 22 10:35 SSW 3 10 Clear CLR 54 37     52%     30.25        
Mar 22 10:15 SW 3 10 Clear CLR 51 37     57%     30.25        
Mar 22 09:55 Calm 10 Clear CLR 49 37     63%     30.24        
Mar 22 09:35 Calm 10 Clear CLR 46 38     74%     30.23        
Mar 22 09:15 Calm 10 Clear CLR 43 36     78%     30.23        
Mar 22 08:55 W 5 10 Clear CLR 41 36     83% 38   30.23        
Mar 22 08:35 ENE 7 10 Clear CLR 36 34     89% 31   30.22        
Mar 22 08:15 ENE 6 10 Clear CLR 33 30     89% 28   30.22        
Mar 22 07:55 Calm 10 Clear CLR 31 29     92%     30.22        
Mar 22 07:35 NW 3 10 Clear CLR 30 28     92% 27   30.21        
Mar 22 07:15 WNW 5 10 Clear CLR 29 26     89% 24   30.2        
Mar 22 06:55 Calm 10 Clear CLR 33 29     85%     30.2        
Mar 22 06:35 NNW 3 10 Clear CLR 32 29     88% 29   30.2        
Mar 22 06:15 NNE 5 10 Clear CLR 34 31     87% 30   30.19        
Mar 22 05:55 WNW 3 10 Clear CLR 31 29     90% 28   30.19        
Mar 22 05:35 W 5 10 Clear CLR 31 29     91% 26   30.19        
Mar 22 05:15 N 3 10 Clear CLR 34 31     88% 31   30.18        
Mar 22 04:55 Calm 10 Clear CLR 34 29     83%     30.18        
Mar 22 04:35 ENE 3 10 Clear CLR 35 31     87% 32   30.18        
Mar 22 04:15 W 5 10 Clear CLR 35 29     79% 31   30.19        
Mar 22 03:55 N 3 10 Clear CLR 36 32     84% 33   30.19        
Mar 22 03:35 W 5 10 Clear CLR 35 31     83% 31   30.2        
Mar 22 03:15 W 5 10 Clear CLR 36 31     84% 32   30.2        
Mar 22 02:55 Calm 10 Clear CLR 36 31     82%     30.19        
Mar 22 02:35 NE 3 10 Clear CLR 38 31     77% 36   30.19        
Mar 22 02:15 SW 5 10 Clear CLR 37 32     79% 34   30.2        
Mar 22 01:55 NNE 3 10 Clear CLR 39 32     76% 37   30.2        
Mar 22 01:35 WNW 5 10 Clear CLR 38 32     79% 35   30.2        
Mar 22 01:15 Calm 10 Clear CLR 36 31     82%     30.19        
Mar 22 00:55 NNE 3 10 Clear CLR 39 33     78% 37   30.19        
Mar 22 00:35 Calm 10 Clear CLR 40 33     75%     30.19        
Mar 22 00:15 W 5 10 Clear CLR 39 34     84% 35   30.2        
Mar 21 23:55 W 3 10 Clear CLR 40 35     80% 38   30.19        
Mar 21 23:35 Calm 10 Clear CLR 41 34     74%     30.19        
Mar 21 23:15 Calm 10 Clear CLR 42 35     75%     30.18        
Mar 21 22:55 Calm 10 Clear CLR 40 34     78%     30.18        
Mar 21 22:35 WSW 3 10 Clear CLR 41 33     74% 39   30.18        
Mar 21 22:15 Calm 10 Clear CLR 44 33     65%     30.17        
Mar 21 21:55 Calm 10 Clear CLR 45 31     58%     30.17        
Mar 21 21:35 Calm 10 Clear CLR 48 31     52%     30.18        
Mar 21 21:15 Calm 10 Clear CLR 45 31     59%     30.17        
Mar 21 20:55 NE 5 10 Clear CLR 50 31     49% 48   30.17        
Mar 21 20:35 NE 5 10 Clear CLR 53 31     43%     30.16        
Mar 21 20:15 ENE 3 10 Clear CLR 51 32     48%     30.16        
Mar 21 19:55 NNE 5 10 Clear CLR 55 30     39%     30.16        
Mar 21 19:35 N 6 10 Clear CLR 55 29     38%     30.17        
Mar 21 19:15 N 7 10 Clear CLR 57 30     35%     30.17        
Mar 21 18:55 NNE 8 10 Clear CLR 58 31     36%     30.16        
Mar 21 18:35 N 5 10 Clear CLR 60 31     32%     30.17        
Mar 21 18:15 N 7 10 Clear CLR 62 29     29%     30.17        
Mar 21 17:55 NW 7 10 Clear CLR 62 29     29%     30.17        
Mar 21 17:35 NW 6 10 Clear CLR 62 30     30%     30.18        
Mar 21 17:15 N 10 10 Clear CLR 62 31     30%     30.18        
Mar 21 16:55 N 7 10 Clear CLR 62 30     30%     30.18        
Mar 21 16:35 N 10 10 Clear CLR 62 31     31%     30.19        
Mar 21 16:15 NNW 7 10 Clear CLR 61 31     32%     30.19        
Mar 21 15:55 N 9 10 Clear CLR 60 32     34%     30.19        
Mar 21 15:35 NNE 6 10 Clear CLR 60 32     35%     30.2        
Mar 21 15:15 N 9 10 Clear CLR 59 32     36%     30.2        
Mar 21 14:55 NNW 8 10 Clear CLR 59 34     38%     30.2        
Mar 21 14:35 N 8 10 Clear CLR 59 35     40%     30.21        
Mar 21 14:15 N 10 10 Clear CLR 58 34     41%     30.21        
Mar 21 13:55 N 10 10 Clear CLR 57 34     42%     30.22        
Mar 21 13:35 N 8 10 Clear CLR 56 35     44%     30.22        
Mar 21 13:15 NW 7 10 Clear CLR 55 35     47%     30.23        
Mar 21 12:55 NW 11 10 Clear CLR 55 36     50%     30.23        
Mar 21 12:35 NNW 10 10 Clear CLR 54 36     51%     30.24        
Mar 21 12:15 N 13 10 Clear CLR 52 36     54%     30.25        
Mar 21 11:55 NNW 14 10 Clear CLR 52 37     56%     30.25        
Mar 21 11:35 N 13 10 Clear CLR 51 38     61%     30.25        
Mar 21 11:15 N 8 10 Clear CLR 50 38     64%     30.25        
Mar 21 10:55 NNW 8 10 Clear CLR 50 39     66% 46   30.25        
Mar 21 10:35 N 9 10 Clear CLR 49 38     66% 45   30.25        
Mar 21 10:15 N 9 10 Clear CLR 47 38     71% 43   30.25        
Mar 21 09:55 N 9 10 Clear CLR 46 38     74% 41   30.25        
Mar 21 09:35 N 10 10 Clear CLR 45 38     77% 40   30.25        
Mar 21 09:15 N 14 10 Clear CLR 44 38     80% 37   30.24        
Mar 21 08:55 NNW 12 10 Clear CLR 43 38     83% 37   30.24        
Mar 21 08:35 NNW 12 10 Clear CLR 42 38     85% 36   30.23        
Mar 21 08:15 NNW 9 10 Clear CLR 40 37     89% 35   30.22        
Mar 21 07:35 N 10 10 Clear CLR 39 36     90% 32   30.21        
Mar 21 07:15 N 10 10 Clear CLR 38 35     91% 31   30.21        
Mar 21 06:55 N 9 10 Clear CLR 37 35     91% 31   30.2        
Mar 21 06:35 NNW 10 10 Clear CLR 38 35     89% 32   30.2        
Mar 21 06:15 NNW 8 10 Clear CLR 37 35     89% 31   30.2        
Mar 21 05:55 NNW 10 10 Clear CLR 40 36     86% 33   30.19        
Mar 21 05:35 NNW 8 10 Clear CLR 38 35     88% 32   30.19        
Mar 21 05:15 NNW 10 10 Clear CLR 40 36     84% 34   30.18        
Mar 21 04:55 NNW 12 10 Clear CLR 42 36     81% 35   30.18        
Mar 21 04:35 NNW 10 10 Clear CLR 41 36     82% 34   30.17        
Mar 21 04:15 NNW 9 10 Clear CLR 41 36     80% 36   30.17        
Mar 21 03:55 NNW 10 10 Clear CLR 42 36     80% 36   30.17        
Mar 21 03:35 N 12 10 Clear CLR 43 36     79% 36   30.17        
Mar 21 03:15 NNW 11 10 Clear CLR 42 36     77% 36   30.16        
Mar 21 02:55 NNW 12 10 Clear CLR 41 34     76% 34   30.16        
Mar 21 02:35 NNW 8 10 Clear CLR 42 31     64% 38   30.16        
Mar 21 02:15 NNW 5 10 Clear CLR 40 31     69% 37   30.15        
Mar 21 01:55 WNW 9 10 Clear CLR 41 31     69% 35   30.14        
Mar 21 01:35 WNW 8 10 Clear CLR 41 31     67% 36   30.14        
Mar 21 01:15 WNW 8 10 Clear CLR 41 31     67% 36   30.13        
Mar 21 00:55 W 8 10 Clear CLR 43 30     61% 38   30.13        
Mar 21 00:35 W 9 10 Clear CLR 44 30     58% 39   30.13        
Mar 21 00:15 W 7 10 Clear CLR 46 31     56% 42   30.13        
Mar 20 23:55 WSW 8 10 Clear CLR 42 32     66% 38   30.13        
Mar 20 23:35 WSW 9 10 Clear CLR 43 32     66% 37   30.13        
Mar 20 23:15 WSW 8 10 Clear CLR 44 32     62% 39   30.13        
Mar 20 22:55 WSW 8 10 Clear CLR 44 32     64% 39   30.13        
Mar 20 22:35 WSW 7 10 Clear CLR 43 33     65% 39   30.13        
Mar 20 22:15 SW 6 10 Clear CLR 43 33     66% 40   30.13        
Mar 20 21:55 SW 6 10 Clear CLR 45 33     62% 42   30.13        
Mar 20 21:35 SW 6 10 Clear CLR 44 33     64% 41   30.13        
Mar 20 21:15 SW 7 10 Clear CLR 46 33     59% 43   30.13        
Mar 20 20:55 SW 6 10 Clear CLR 47 32     56% 45   30.13        
Mar 20 20:35 WSW 6 10 Clear CLR 50 32     51% 47   30.13        
Mar 20 20:15 WSW 7 10 Clear CLR 51 32     49%     30.13        
Mar 20 19:55 W 7 10 Clear CLR 53 31     43%     30.13        
Mar 20 19:35 W 9 10 Clear CLR 54 32     43%     30.13        
Mar 20 19:15 W 10 10 Clear CLR 56 32     40%     30.12        
Mar 20 18:55 W 14 10 Clear CLR 58 32     37%     30.12        
Mar 20 18:35 WNW 16 10 Clear CLR 59 31     35%     30.12        
Mar 20 18:15 W 13 10 Clear CLR 60 31     34%     30.12        
Mar 20 17:55 W 14 10 Clear CLR 60 32     35%     30.11        
Mar 20 17:35 WNW 13 10 Clear CLR 60 33     35%     30.12        
Mar 20 17:15 W 14 10 Partly Cloudy SCT065 60 32     34%     30.12        
Mar 20 16:55 WNW 20 10 Partly Cloudy and Windy SCT065 60 33     36%     30.12        
Mar 20 16:35 WNW 14 10 Partly Cloudy SCT060 60 33     37%     30.13        
Mar 20 16:15 WNW 14 10 Mostly Cloudy BKN060 59 35     40%     30.13        
Mar 20 15:55 WNW 16 10 Partly Cloudy SCT060 59 36     43%     30.14        
Mar 20 15:35 W 10 10 Partly Cloudy SCT060 59 35     41%     30.15        
Mar 20 15:15 WNW 16 10 Mostly Cloudy SCT046 BKN050 BKN070 57 37     48%     30.16        
Mar 20 14:55 W 17 10 Mostly Cloudy SCT047 BKN050 BKN070 58 37     46%     30.17        
Mar 20 14:35 WNW 14 10 Mostly Cloudy SCT045 BKN050 56 37     49%     30.18        
Mar 20 14:15 NNW 12 10 Mostly Cloudy BKN046 BKN050 55 38     53%     30.19        
Mar 20 13:55 NW 13 10 Cloudy SCT040 OVC048 54 38     55%     30.2        
Mar 20 13:35 WNW 13 10 Cloudy SCT039 OVC050 54 39     57%     30.21        
Mar 20 13:15 WNW 13 10 Cloudy SCT037 BKN049 OVC080 53 38     56%     30.21        
Mar 20 12:55 WNW 12 10 Cloudy SCT037 OVC049 53 40     62%     30.22        
Mar 20 12:35 NW 14 10 Cloudy SCT026 SCT041 OVC049 53 40     62%     30.23        
Mar 20 12:15 W 14 10 Cloudy SCT026 BKN034 OVC049 51 40     68%     30.23        
Mar 20 11:55 NW 10 10 Cloudy OVC033 49 40     70% 45   30.24        
Mar 20 11:35 NNW 15 10 Mostly Cloudy SCT029 BKN034 BKN041 50 39     66%     30.24        
Mar 20 11:15 NW 13 10 Mostly Cloudy SCT027 BKN034 51 42     71%     30.25        
Mar 20 10:55 NW 14 10 Mostly Cloudy SCT018 BKN034 BKN040 50 42     72%     30.25        
Mar 20 10:35 NW 15 10 Mostly Cloudy BKN018 BKN044 48 42     79% 42   30.26        
Mar 20 10:15 NW 15 10 Mostly Cloudy BKN016 BKN044 45 40     82% 39   30.26        
Mar 20 09:55 NW 17 10 Mostly Cloudy BKN014 BKN039 46 41     83% 39   30.26        
Mar 20 09:35 WNW 14 10 Cloudy OVC039 45 41     87% 38   30.25        
Mar 20 09:15 WNW 15 10 Cloudy OVC037 44 40     87% 36   30.25        
Mar 20 08:55 W 13 10 Cloudy OVC037 42 39     89% 35   30.25        
Mar 20 08:35 W 9 10 Cloudy OVC037 42 39     89% 37   30.24        
Mar 20 08:15 WNW 10 10 Mostly Cloudy BKN037 42 39     89% 36   30.24        
Mar 20 07:55 WNW 9 10 Clear CLR 42 39     89% 36   30.23        
Mar 20 07:35 W 10 10 Clear CLR 42 39     88% 36   30.23        
Mar 20 07:15 WNW 9 10 Clear CLR 42 39     88% 37   30.22        
Mar 20 06:55 WNW 10 10 Clear CLR 42 39     89% 36   30.22        
Mar 20 06:35 WNW 12 10 Clear CLR 42 39     88% 36   30.21        
Mar 20 06:15 WNW 13 10 Clear CLR 42 39     88% 36   30.21        
Mar 20 05:55 WNW 10 10 Partly Cloudy SCT120 43 39     88% 37   30.21        
Mar 20 05:35 W 10 10 Partly Cloudy SCT120 43 40     88% 37   30.2        
Mar 20 05:15 W 10 10 Partly Cloudy SCT120 43 40     89% 37   30.2        
Mar 20 04:55 W 8 10 Partly Cloudy SCT120 43 40     91% 38   30.21        
Mar 20 04:35 W 9 10 Mostly Cloudy BKN120 43 40     90% 38   30.21        
Mar 20 04:15 WSW 8 10 Mostly Cloudy BKN120 43 40     88% 39   30.21        
Mar 20 03:55 W 9 10 Mostly Cloudy BKN120 43 40     88% 38   30.21        
Mar 20 03:35 W 8 10 Partly Cloudy SCT120 43 40     88% 38   30.21        
Mar 20 03:15 W 8 10 Partly Cloudy SCT110 43 40     88% 38   30.22        
Mar 20 02:55 W 7 10 Partly Cloudy SCT110 43 40     88% 39   30.21        
Mar 20 02:35 WNW 6 10 Partly Cloudy SCT110 43 39     88% 39   30.21        
Mar 20 02:15 WNW 8 10 Mostly Cloudy SCT080 BKN110 43 40     88% 39   30.2        
Mar 20 01:55 NW 9 10 Cloudy SCT060 OVC080 44 41     88% 39   30.2        
Mar 20 01:35 NW 10 10 Cloudy SCT022 BKN060 OVC080 45 41     87% 40   30.2        
Mar 20 01:15 NW 15 10 Cloudy SCT012 BKN017 OVC060 46 42     88% 39   30.2        
Mar 20 00:55 WNW 16 10 Cloudy OVC012 47 43     88% 40   30.2       0
Mar 20 00:35 WNW 16 10 Cloudy BKN009 OVC015 49 45     89% 43   30.2        
Mar 20 00:15 WSW 8 10 Cloudy SCT018 OVC065 50 48     95% 46   30.19        
Mar 19 23:55 WSW 8 10 Cloudy BKN065 OVC080 49 48     95% 46   30.18   0    
Mar 19 23:35 Calm 10 Cloudy BKN065 OVC090 50 48     92%     30.17   0    
Mar 19 23:15 Calm 10 Light Rain BKN060 BKN075 OVC090 51 48     89%     30.17   0    
Mar 19 22:55 SE 5 7 Rain SCT060 BKN065 OVC090 51 48     87%     30.17   0    
Mar 19 22:35 Calm 10 Light Rain OVC070 51 47     87%     30.17        
Mar 19 22:15 N 6 10 Light Rain OVC070 51 47     87%     30.16        
Mar 19 21:55 N 5 10 Light Rain SCT060 OVC070 52 47     83%     30.16        
Mar 19 21:35 N 10 10 Light Rain OVC070 53 47     80%     30.16        
Mar 19 21:15 NNW 9 10 Light Drizzle OVC070 54 45     70%     30.16        
Mar 19 20:55 NNW 13 10 Cloudy SCT070 OVC080 55 44     66%     30.15        
Mar 19 20:35 NNW 15 10 Light Rain SCT070 OVC090 56 43     62%     30.14        
Mar 19 20:15   10 Cloudy BKN090 OVC120 58 42     55%     30.12        
Mar 19 19:55 S 8 10 Partly Cloudy SCT090 SCT120 60 36     40%     30.09        
May 15 13:35 WSW 10 10 Mostly Cloudy BKN034 BKN039 BKN060 80 69     69%   83 29.98        
May 15 04:15 SE 14 10 Clear CLR 63 61     93%     29.87        
May 14 22:35   5 Thunderstorms and Haze BKN050 BKN060 BKN120 74 62     66%   75 29.92        
May 14 11:55 SSW 21 10 Clear and Windy CLR 85 70     61%   90 29.92        
May 14 11:15 S 24 10 Clear and Windy CLR 84 70     63%   88 29.92        
May 14 10:55 SSW 21 10 Clear and Windy CLR 81 69     66%   84 29.93        
May 14 08:55 S 13 10 Clear CLR 74 67     80%   75 29.94        
May 14 06:35 S 9 10 Clear CLR 71 66     84%   71 29.91        
Notice The following observation data may not be complete
May 14 00:55   10 Clear CLR          %              
May 13 19:55 S 14 10 Clear CLR 81 63     55%   82 29.89        
May 13 08:55 S 16 10 Clear CLR 76 69     78%   77 29.98        
May 13 06:35 S 7 10 Clear CLR 67 65     93%     29.96        
May 13 02:15 SSE 6 10 Clear CLR 67 64     90%     29.95        
May 13 00:35 S 3 10 Clear CLR 69 64     86%     29.97        
May 12 21:15 S 9 10 Mostly Cloudy BKN041 77 66     70%   78 29.91        
May 12 16:15 S 21 10 Clear and Windy   83 69     62%   87 29.88        
May 12 04:35 SSE 10 10 Clear CLR 69 62     78%     29.83        
May 12 01:55 S 14 10 Clear CLR 73 63     72%   73 29.8        
May 11 14:15 S 22 10 Clear and Windy CLR 83 64     53%   85 29.77        
May 11 09:35 SSW 23 10 Clear and Windy CLR 74 62     66%   74 29.8        
Jun 12 08:15 S 17 10 Clear CLR 73 68     83%   74 29.92        
Jun 12 07:12 SSE 10 10 Clear CLR 72 64     78%   72 29.91        
Jun 12 05:55 S 10 10 Clear CLR 70 63     78%     29.89        
Jun 12 05:12 S 12 10 Clear CLR 72 63     73%   72 29.88        
Jun 12 02:12 SSE 10 10 Clear CLR 72 64     78%   72 29.88        
Jun 12 01:52 SSE 10 10 Clear CLR 72 64     78%   72 29.89        
Notice The following observation data may not be complete
Jun 12 00:15   10 Clear CLR          %              
Notice The following observation data may not be complete
Jun 11 23:15   10 Clear CLR          %              
Notice The following observation data may not be complete
Jun 11 22:47   10 Clear CLR          %              
Notice The following observation data may not be complete
Jun 11 21:42   10 Clear CLR          %              
Jun 11 21:07 SSE 14 10 Clear CLR 79 64     61%   79 29.84        
Jun 11 19:27 SSE 15 10 Clear CLR 82 66     58%   85 29.83        
Notice The following observation data may not be complete
Jun 11 18:42   10 Clear CLR          %              
Jun 11 18:12 SSE 21 10 Clear and Windy CLR 84 66     55%   87 29.83        
Jun 11 17:27 SSE 20 10 Clear and Windy CLR 86 66     52%   88 29.84        
Jun 11 17:12 SSE 26 10 Clear and Breezy CLR 86 66     52%   88 29.84        
Jun 11 16:32 S 24 10 Clear and Windy CLR 86 66     52%   88 29.84        
Jun 11 15:17 SSE 24 10 Partly Cloudy and Windy SCT043 88 66     49%   90 29.86        
Notice The following observation data may not be complete
Jun 11 15:15   10 Partly Cloudy SCT043          %              
Jun 11 15:12 SSE 26 10 Clear and Breezy   88 66     49%   90 29.86        
Jun 11 14:52 S 22 10 Clear and Windy CLR 88 66     49%   90 29.86        
Jun 11 12:42 S 20 10 Clear and Windy CLR 86 64     49%   88 29.87        
Notice The following observation data may not be complete
Jun 11 11:47   10 Clear CLR          %              
Jun 11 11:32 S 23 10 Clear and Windy CLR 84 64     52%   86 29.87        
Jun 11 10:42 S 20 10 Clear and Windy CLR 82 64     55%   84 29.86        
Jun 11 10:07 S 21 10 Clear and Windy CLR 81 64     58%   82 29.87        
Jun 11 08:02 S 18 10 Clear CLR 73 63     69%   74 29.87        
Jun 11 07:12 SSE 17 10 Clear CLR 72 63     73%   72 29.87        
Jun 11 07:07 SSE 16 10 Clear CLR 72 63     73%   72 29.86        
Jun 11 06:52 SSE 16 10 Clear CLR 72 63     73%   72 29.86        
Jun 11 05:12 SSE 13 10 Clear CLR 72 63     73%   72 29.85        
Jun 11 04:32 S 14 10 Clear CLR 72 63     73%   72 29.85        
Jun 11 02:42 S 16 10 Clear   73 63     69%   74 29.84        
Jun 11 02:32 S 15 10 Clear CLR 73 63     69%   74 29.85        
Jun 11 01:15 S 20 10 Clear and Windy CLR 73 63     69%   74 29.84        
Jun 11 00:55 S 16 10 Clear CLR 73 63     69%   74 29.85        
Jun 11 00:15 S 16 10 Clear CLR 73 63     69%   74 29.85        
Jun 10 22:22 SSE 14 10 Clear CLR 77 64     65%   77 29.83        
Jun 10 22:07 S 17 10 Clear   77 64     65%   77 29.82        
Jun 10 21:12 SSE 14 10 Clear CLR 79 64     61%   79 29.8        
Jun 10 18:35 S 17 10 Clear CLR 82 64     55%   84 29.77        
Jun 10 18:27 SSE 22 10 Partly Cloudy and Windy SCT040 84 66     55%   87 29.77        
Jun 10 18:17 SSE 24 10 Clear and Windy   84 66     55%   87 29.77        
Jun 10 17:02 SSE 23 10 Partly Cloudy and Windy SCT040 84 66     55%   87 29.77        
Jun 10 13:22 SSE 23 10 Mostly Cloudy and Windy BKN036 82 64     55%   84 29.83        
Jun 10 13:12 S 17 10 Mostly Cloudy BKN036 82 64     55%   84 29.84        
Jun 10 11:07 S 22 10 Clear and Windy CLR 81 64     58%   82 29.84        
Jun 10 09:42 S 23 10 Clear and Windy CLR 75 63     65%   75 29.86        
Notice The following observation data may not be complete
Jun 10 09:15   10 Clear CLR          %              
Notice The following observation data may not be complete
Jun 10 07:42   10 Clear CLR          %              
Jun 10 06:55 S 13 10 Clear CLR 68 61     78%     29.85        
Jun 10 02:57 SSE 7 10 Clear CLR 64 61     88%     29.82        
Jun 10 01:42 SSE 7 10 Clear CLR 66 59     78%     29.84        
Jun 10 01:32 SSE 7 10 Clear CLR 66 59     78%     29.84        
Jun 10 01:17 SSE 8 10 Clear CLR 66 59     78%     29.84        
Notice The following observation data may not be complete
Jun 10 00:47   10 Clear CLR          %              
Notice The following observation data may not be complete
Jun 09 21:35 SSE 8 10 Clear CLR   59      %     29.84        
Notice The following observation data may not be complete
Jun 09 20:47   10 Clear CLR          %              
Jun 09 20:12 SSE 9 10 Clear CLR 75 61     61%   75 29.84        
Jun 09 19:07 SSE 12 10 Clear CLR 81 57     45%   81 29.84        
Notice The following observation data may not be complete
Jun 09 18:47   10 Clear CLR          %              
Jun 09 17:26 SSE 14 10 Clear CLR 82 57     42%   82 29.85        
Jun 09 16:52 SSE 15 10 Clear CLR 82 57     42%   82 29.86        
Jun 09 16:22 SSE 14 10 Partly Cloudy SCT050 82 57     42%   82 29.87        
Notice The following observation data may not be complete
Jun 09 16:15   10 Partly Cloudy SCT050          %              
Jun 09 15:15 SSE 14 10 Clear CLR 82 57     42%   82 29.88        
Jun 09 15:02 SSE 16 10 Clear CLR 82 57     42%   82 29.88        
Jun 09 14:52 S 13 10 Partly Cloudy SCT050 82 57     42%   82 29.88        
Notice The following observation data may not be complete
Jun 09 13:47   10 Partly Cloudy SCT050          %              
Notice The following observation data may not be complete
Jun 09 08:55   10 Clear CLR          %              
Jun 09 07:15 Calm 10 Clear CLR 61 57     88%     29.93        
Notice The following observation data may not be complete
Jun 09 04:57   10 Clear CLR          %              
Jun 09 02:07 Calm 10 Clear CLR 61 55     82%     29.9        
Jun 09 01:07 Calm 10 Clear CLR 63 57     83%     29.92        
Jun 08 23:42 Calm 10 Clear CLR 64 57     77%     29.93        
Notice The following observation data may not be complete
Jun 08 22:42   10 Clear CLR          %              
Jun 08 19:32 ESE 6 10 Clear   79 52     39%   78 29.91        
Jun 08 19:17 ESE 6 10 Clear CLR 79 50     37%   78 29.92        
Jun 08 19:02 SSE 3 10 Clear CLR 79 48     34%   78 29.92        
Jun 08 18:52 SSE 6 10 Clear CLR 81 50     34%   80 29.92        
Jun 08 15:02 SSE 5 10 Clear CLR 81 45     28%   80 29.99        
Jun 08 14:17 SSW 6 10 Clear CLR 81 46     30%   80 30        
Jun 08 12:27 S 6 10 Clear CLR 77 46     34%   76 30.04        
Jun 08 11:52 SSE 6 10 Clear CLR 77 46     34%   76 30.05        
Notice The following observation data may not be complete
Jun 08 10:57   10 Clear CLR          %              
Jun 08 08:55 ENE 3 10 Clear CLR 68 57     68%     30.07        
Jun 08 08:42 Calm 10 Clear CLR 68 59     73%     30.07        
Jun 08 08:27 Calm 10 Clear   66 57     73%     30.07        
Jun 08 07:55 Calm 10 Clear CLR 63 55     77%     30.07        
Jun 08 06:57 Calm 10 Clear CLR 55 54     94%     30.06        
Jun 07 21:27 ENE 3 10 Clear CLR 70 54     56%     30.03        
Jun 07 21:17 ENE 3 10 Clear CLR 72 54     53%   71 30.03        
Jun 07 21:12 ENE 3 10 Clear CLR 72 54     53%   71 30.03        
Jun 07 18:07 ENE 9 10 Clear CLR 79 48     34%   78 30.03        
Jun 07 17:07 E 7 10 Clear CLR 81 46     30%   80 30.04        
Notice The following observation data may not be complete
Jun 07 15:42   10 Clear CLR          %              
Notice The following observation data may not be complete
Jun 07 14:42   10 Clear CLR          %              
Jun 07 13:37 ENE 5 10 Clear CLR 79 45     30%   78 30.07        
Jun 07 13:35 E 5 10 Clear CLR 77 43     30%   76 30.07        
Jun 07 12:02 NE 9 10 Clear CLR 77 46     34%   76 30.09        
Jun 07 11:22 NE 8 10 Clear CLR 77 46     34%   76 30.09        
Jun 07 10:47 NNE 10 10 Clear CLR 75 46     36%   74 30.09        
Jun 07 09:35 ENE 8 10 Clear CLR 72 50     46%   71 30.09        
Jun 07 09:02 ENE 8 10 Clear CLR 70 52     53%     30.08        
Jun 06 15:15 NNE 11 10 Clear CLR 84 55     37%   83 29.94        
Jun 06 14:12 NNE 16 10 Clear CLR 84 57     40%   83 29.95        
Jun 06 13:57 N 13 10 Clear CLR 84 55     37%   83 29.96        
Notice The following observation data may not be complete
Jun 06 12:42   10 Clear CLR          %              
Jun 06 12:37 NNE 13 10 Clear CLR 84 57     40%   83 29.96        
Jun 06 11:55 NNE 9 10 Clear CLR 81 59     48%   81 29.97        
Jun 06 11:32 NE 9 10 Clear CLR 81 63     54%   82 29.96        
Jun 06 09:02 NNE 7 10 Clear CLR 73 61     65%   73 29.95        
Jun 06 08:02 N 6 10 Clear CLR 70 61     73%     29.94        
Jun 06 07:42 N 3 10 Clear CLR 70 61     73%     29.93        
Jun 06 07:35 N 5 10 Clear CLR 68 61     78%     29.94        
Jun 06 06:55 N 5 10 Clear CLR 64 61     88%     29.92        
Jun 06 05:55 N 6 10 Clear CLR 63 61     94%     29.91        
Notice The following observation data may not be complete
Jun 06 04:52   10 Clear CLR          %              
Notice The following observation data may not be complete
Jun 06 02:57   10 Clear CLR          %              
Jun 06 02:55 Calm 10 Clear CLR 68 63     83%     29.89        
Jun 06 00:55 Calm 10 Clear CLR 68 64     88%     29.88        
Jun 05 22:42 W 3 10 Clear CLR 73 66     78%   74 29.87        
Jun 05 22:37 Calm 10 Clear   73 66     78%   74 29.87        
Jun 05 21:55 Calm 10 Clear   73 66     78%   74 29.86        
Jun 05 19:37 E 6 10 Clear CLR 84 63     48%   85 29.83        
Jun 05 18:22 ENE 12 10 Clear CLR 86 61     43%   86 29.81        
Jun 05 17:22 NE 9 10 Clear CLR 88 61     40%   88 29.8        
Notice The following observation data may not be complete
Jun 05 14:15   10 Clear CLR          %